Погода в Беково

Россия / Пензенская область     52°27′32″N   43°42′27″E
темп.,
°C
ветер,
м/с
пор.,
м/с
влажн.,
%
обл.,
%
осадки,
мм/ч
давл.,
гПа
погр.,
м
14 мая, пт
пт1400:00+15вюв1188100 0.0 101811
03:00+14в1189100 0.0 101811
06:00+16вюв1288100 0.0 101833
09:00+21юв237115 0.0 1018465
12:00+24юв34535 0.0 10181236
15:00+26юв454997 0.0 10171270
18:00+23юв5117279 0.0 1016354
21:00+18юв4885100 0.0 1016118
15 мая, сб
сб1500:00+17юв4107841 0.0 1015153
03:00+17ююв5156363 0.0 1015302
06:00+16ююв51466100 0.0 1016298
09:00+21ю61556100 0.0 1016593
12:00+25ю71349100 0.0 10161129
15:00+26ю612505 0.0 10151509
18:00+23ю4106327 0.0 1014285
21:00+18ююв467239 0.0 101486
16 мая, вс
вс1600:00+16ююз337830 0.0 101527
03:00+15ю118172 0.0 101511
06:00+17юв227975 0.0 101573
09:00+22ююв465841 0.0 1016455
12:00+25ю69435 0.0 10161036
15:00+26ю584423 0.0 10151228
18:00+24ю34628 0.0 1015101
21:00+18юв226857 0.0 101511
17 мая, пн
пн1700:00+17вюв336840 0.0 101523
03:00+16юв236582 0.0 101524
06:00+17юв3362100 0.0 101551
09:00+23юв5104989 0.0 1015521
12:00+26ююв6941100 0.0 1015932
15:00+27юв5848100 0.0 10141065
18:00+23юв396372 0.0 1014190
21:00+19вюв486592 0.0 1014113
18 мая, вт
вт1800:00+17юв4105280 0.0 1014138
03:00+15вюв48533 0.0 1013106
06:00+16вюв38662 0.0 1013149
09:00+23ююв594823 0.0 1013403
12:00+27ююв683717 0.0 10131050
15:00+27юв6104557 0.0 10121130
18:00+24юв4106421 0.0 1011226
21:00+19ююв346841 0.0 101247